Tracking 19800 objects as of 24-Jul-2019
HD Live streaming from Space Station
objects crossing your sky now

THORAD DELTA 1 DEB

Track THORAD DELTA 1 DEB now!
10-day predictions


NORAD ID: 8311
Int'l Code: 1974-089BU
Perigee: 1,461.6 km
Apogee: 1,519.9 km
Inclination: 101.8 °
Period: 115.6 minutes
Semi major axis: 7861 km
RCS: 2.7637 m2 (large)
Launch date: November 15, 1974
Source: United States (US)
Launch site: AIR FORCE WESTERN TEST RANGE (AFWTR)

Note: This is SATELLITE DEBRIS
aabbcc
Your satellite tracking list
Your tracking list is empty




NASA's NSSDC Master Catalog

Two Line Element Set (TLE):
1  8311U 74089BU  19204.88275226 -.00000004  00000-0  27751-3 0  9997
2  8311 101.7812 159.0218 0037072  70.0339 351.9739 12.45449848 31664
Source of the keplerian elements: AFSPC